Flag for Austria Weather past 2 weeks in Zwettl, Lower Austria, Austria

Now
79 °F

Pleasantly warm.


Feels Like: 79 °F
Forecast: 56 / 71 °F
Wind: 6 mph from Southeast

Location: Retz

Current Time: Aug 1, 2015 at 4:50:31 PM

Latest Report: Aug 1, 2015 at 4:00 PM


Visibility: N/A

Pressure: 29.93 "Hg (28.19 "Hg at 524m altitude)

Humidity: 31%

Dew point: 46 °F

Location of ZwettlLocation

Historic Weather in Zwettl — Graph

°F

Zwettl temperature yesterday

Maximum temperature yesterday: 78 °F (at 4:00 PM)
Minimum temperature yesterday: 58 °F (at 7:00 AM)
Average temperature yesterday: 68 °F

Past Weeks' High & Low Weather Summary

 TemperatureHumidityPressure
High96 °F (Jul 17, 3:00 PM)92% (Jul 29, 7:00 AM)30.04 "Hg (Jul 29, 7:00 AM)
Low55 °F (Jul 30, 6:00 AM)21% (Jul 17, 3:00 PM)29.64 "Hg (Jul 27, 4:00 PM)
Average74 °F53%29.86 "Hg
* Reported Jul 17 3:00 PM — Aug 1 3:00 PM, Zwettl, Weather by CustomWeather, © 2015

Note: Actual official high and low records may vary slightly from our data, if they occured in-between our weather recording intervals... More about our weather records

Advertising

Zwettl weather history for previous 24 hours

 ConditionsComfort  
Time TempWeatherWind HumidityBarometerVisibility
3:00 PM
Sat, Aug 1
79 °FPleasantly warm.5 mph32%29.94 "HgN/A
2:00 PM77 °FScattered clouds.6 mph36%29.95 "Hg25 mi
1:00 PM76 °FMild.6 mph35%29.97 "HgN/A
12:00 PM75 °FMild.7 mph35%29.97 "HgN/A
11:00 AM74 °FMild.7 mph36%29.98 "HgN/A
10:00 AM70 °FMild.6 mph41%29.98 "HgN/A
9:00 AM66 °FMild.6 mph49%30.00 "HgN/A
8:00 AM61 °FPassing clouds.6 mph57%30.01 "Hg16 mi
7:00 AM58 °FPassing clouds.6 mph62%30.01 "Hg16 mi
4:00 AM57 °FCool.5 mph61%30.02 "HgN/A
3:00 AM58 °FRefreshingly cool.5 mph59%30.01 "HgN/A
2:00 AM59 °FRefreshingly cool.5 mph57%30.01 "HgN/A
1:00 AM61 °FRefreshingly cool.5 mph53%30.02 "HgN/A
12:00 AM63 °FMild.5 mph49%30.03 "HgN/A
11:00 PM
Fri, Jul 31
65 °FMild.3 mph42%30.02 "HgN/A
10:00 PM66 °FMild.3 mph39%30.01 "HgN/A
9:00 PM70 °FMild.2 mph34%29.99 "HgN/A
8:00 PM73 °FPassing clouds.2 mph29%29.97 "Hg22 mi
7:00 PM75 °FMild.2 mph25%29.96 "HgN/A
6:00 PM76 °FMild.3 mph24%29.97 "HgN/A
5:00 PM78 °FPleasantly warm.No wind22%29.96 "HgN/A
4:00 PM78 °FPleasantly warm.3 mph23%29.97 "HgN/A
Weather by CustomWeather, © 2015

See weather overviewHow to use our weather pages